TIME,DELAY(SENSOR),PRES,T(CTD),SAL,OXYGEN,RAWTEMP,T(OPTODE),TCPHASE,FLUOR,BETA(BETA700),BETA(BETA412),BETA(BETA440),CDOM,C(CSC),ED(ED411.90),ED(ED443.80),ED(ED489.40),ED(ED554.70),LU(LU412.20),LU(LU443.80),LU(LU489.40),LU(LU555.00),COMP,TILTX,TILTX(TILTY),CHECK
1370620675,5804,497.5000000000000000,16.6252002716064450,36.2901992797851560,209.7292022705078000,200.9710998535156200,16.6190700531005860,32.6716117858886700,50,100,95,79,68,10079,2146958436,2147514358,2147274797,2147461595,2147083154,2146954304,2147652964,2147123410,3028,-1,8,53974
1370620809,5805,486.2399902343750000,16.7761993408203120,36.3185997009277340,211.4640960693359400,195.8865966796875000,16.7723293304443360,32.5037803649902340,51,99,94,80,68,10082,2146959826,2147517668,2147271844,2147463734,2147082313,2146953124,2147655835,2147124096,2601,-1,8,19522
1370620941,5806,475.2600097656250000,16.9419002532959000,36.3490982055664060,213.6472930908203000,190.0773925781250000,16.9474506378173830,32.3031501770019500,50,99,96,79,68,10084,2146960996,2147515172,2147270445,2147460178,2147082240,2146959716,2147657426,2147119296,1156,-1,8,47508
1370621065,5807,464.8500061035156000,17.0858001708984380,36.3776016235351560,215.8206024169922000,185.7113037109375000,17.0790996551513670,32.1249809265136700,51,100,96,80,68,10080,2146957366,2147516873,2147270281,2147459629,2147080786,2146957184,2147654409,2147122715,856,-1,8,12104
1370621197,5807,453.5700073242187500,17.1825008392334000,36.3964996337890600,217.5641021728515600,182.3621063232422000,17.1800899505615230,31.9856300354003900,51,102,96,79,68,10081,2146957979,2147518061,2147271442,2147458532,2147080960,2146959844,2147657755,2147120539,786,-1,8,50907
1370621332,5806,441.7799987792969000,17.3190994262695300,36.4226989746093750,219.4351959228515600,177.9152984619140600,17.3142108917236330,31.8250102996826170,50,101,95,80,68,10077,2146960256,2147517659,2147266953,2147459190,2147081993,2146953024,2147655296,2147120877,235,-1,8,67
1370621453,5805,431.0199890136719000,17.4130992889404300,36.4406013488769500,220.8253021240234400,174.6004028320312500,17.4142093658447270,31.7066097259521500,50,102,95,79,68,10079,2146956370,2147518016,2147268544,2147453220,2147081883,2146959570,2147650715,2147121225,3406,-1,8,3970
1370621574,5806,420.1099853515625000,17.4944992065429700,36.4561996459960940,221.8072967529297000,172.0991058349609400,17.4896697998046880,31.6212005615234380,50,99,94,81,68,10081,2146955428,2147513828,2147266532,2147456676,2147082203,2146961024,2147653558,2147123529,3526,-1,8,49410
1370621698,5803,408.7399902343750000,17.5394992828369140,36.4617996215820300,223.3831939697265600,170.5133972167968800,17.5375194549560550,31.5182304382324220,51,100,95,80,67,10075,2146957970,2147514688,2147269778,2147451712,2147085092,2146957019,2147653330,2147129060,2969,-1,8,9188
1370621808,5804,398.6000061035156000,17.6527004241943360,36.4816017150878900,224.6535949707031200,166.8096923828125000,17.6492805480957030,31.4026908874511720,51,101,95,80,67,10077,2146956918,2147518509,2147267136,2147454674,2147081929,2146959003,2147653522,2147123154,3221,-1,8,62134
1370621929,5803,387.4700012207031000,17.6958007812500000,36.4894981384277340,226.2922058105468800,165.2438964843750000,17.6965408325195300,31.2984905242919920,51,100,94,80,66,10073,2146957110,2147516388,2147268178,2147456640,2147082349,2146961225,2147649728,2147126500,2845,-1,8,8772
1370622052,5802,376.1900024414062500,17.7791004180908200,36.5031013488769500,229.1499023437500000,162.5229034423828000,17.7786693572998050,31.1179504394531250,50,103,96,81,66,10075,2146959296,2147517430,2147265380,2147452425,2147083099,2146955748,2147655350,2147125110,2114,-1,8,46503
1370622173,5804,365.2500000000000000,17.8556003570556640,36.5177001953125000,229.5767059326172000,160.1486968994140600,17.8503494262695300,31.0649108886718750,51,100,95,81,66,10065,2146956836,2147518729,2147268434,2147455689,2147082422,2146957238,2147651172,2147127378,1956,-1,8,55280
1370622297,5804,354.2500000000000000,17.9325008392334000,36.5318984985351560,227.7736968994140600,157.4185943603515600,17.9327793121337900,31.1179695129394530,51,101,94,81,67,10074,2146958235,2147513901,2147268132,2147452251,2147082240,2146955264,2147652909,2147128749,1470,-1,8,42578
1370622429,5807,343.0700073242187500,17.9902992248535160,36.5401992797851560,227.4916992187500000,155.6878967285156200,17.9850406646728500,31.1087093353271500,50,103,95,80,66,10074,2146958089,2147515894,2147267145,2147453421,2147081664,2146956114,2147652891,2147126025,586,-1,8,64002
1370622561,5806,332.1600036621094000,18.0270996093750000,36.5457000732421900,226.9902954101562500,154.4606018066406200,18.0221004486084000,31.1174907684326170,50,102,95,81,66,10072,2146959588,2147516068,2147266651,2147453046,2147080082,2146959780,2147658980,2147124827,487,-1,7,52857
1370622695,5804,321.2099914550781000,18.0592994689941400,36.5470008850097660,229.8807983398437500,153.3191070556640600,18.0565795898437500,30.9580497741699220,50,101,96,82,65,10065,2146958080,2147512740,2147263689,2147450834,2147076626,2146958701,2147657005,2147128768,2931,-1,8,58011
1370622827,5804,310.5499877929687500,18.1077995300292970,36.5503997802734400,231.8742065429687500,151.7449035644531200,18.1041297912597660,30.8386001586914060,50,104,95,82,65,10066,2146953545,2147510299,2147265654,2147449435,2147082550,2146955017,2147653851,2147130422,2664,-1,8,7535
1370622962,5805,299.8800048828125000,18.1403999328613280,36.5544013977050800,232.9938049316406200,150.6773071289062500,18.1363792419433600,30.7699508666992200,50,103,95,80,66,10064,2146960192,2147516315,2147263625,2147448411,2147083355,2146957732,2147659364,2147123629,2339,-1,8,64952
1370623105,5803,288.6600036621094000,18.1842002868652340,36.5553016662597660,233.6728973388672000,149.1759033203125000,18.1817398071289060,30.7168998718261720,50,101,94,81,65,10068,2146956562,2147515885,2147262720,2147449984,2147082934,2146962130,2147655259,2147128027,1502,-1,8,33712
1370623248,5806,276.8900146484375000,18.2250995635986330,36.5567016601562500,239.0876007080078000,147.8186035156250000,18.2227401733398440,30.4400405883789060,50,103,96,81,64,10067,2146957449,2147519945,2147269970,2147448000,2147077814,2146965174,2147674532,2147130587,228,-1,8,10826
1370623360,5804,265.7900085449219000,18.2478008270263670,36.5573997497558600,240.9559936523437500,147.1712036132812500,18.2423095703125000,30.3438301086425780,50,103,95,81,64,10067,2146958308,2147508416,2147265682,2147450898,2147083090,2146970742,2147685504,2147129746,2774,-2,8,7285
1370623470,5807,254.6699981689453000,18.2693004608154300,36.5581016540527340,240.6248931884765600,146.4373016357422000,18.2644805908203120,30.3495693206787100,50,102,96,81,65,10067,2146958518,2147512594,2147265746,2147449801,2147074962,2146985261,2147705526,2147129472,1703,-1,8,50242
1370623582,5806,243.5000000000000000,18.3075008392334000,36.5550003051757800,242.3643951416015600,145.1898956298828000,18.3021793365478500,30.2520408630371100,50,101,96,81,65,10067,2146955757,2147515931,2147267638,2147451904,2147079963,2146994944,2147724873,2147130166,1068,-1,8,41771
1370623692,5805,232.3899993896484400,18.3020000457763670,36.5470008850097660,245.9931945800781200,145.2919006347656200,18.2990894317626950,30.0867805480957030,50,103,95,81,65,10067,2146959177,2147514230,2147265344,2147452086,2147080246,2146998509,2147743844,2147133851,538,-1,8,15981
1370623802,5802,221.1100006103515600,18.3441009521484380,36.5518989562988300,247.6186065673828000,143.9882049560547000,18.3384895324707030,29.9959602355957030,50,103,96,81,63,10065,2146954733,2147519085,2147266697,2147446400,2147072246,2146994230,2147738596,2147130569,3281,-1,8,14648
1370623920,5804,210.2500000000000000,18.3637008666992200,36.5531997680664060,247.9725036621093800,143.3365020751953000,18.3581905364990230,29.9716091156005860,52,102,96,81,64,10066,2146956507,2147517083,2147268937,2147450377,2147079085,2147006784,2147743286,2147130916,2253,-1,8,53375
1370624052,5806,199.6999969482422000,18.3871002197265620,36.5547981262207000,250.1654052734375000,142.4918060302734400,18.3837203979492200,29.8620891571044920,54,105,96,82,62,10060,2146957321,2147518070,2147271131,2147450249,2147083821,2147027245,2147802185,2147135076,1406,-1,8,13988
1370624107,5805,195.3099975585937500,18.3978996276855470,36.5547981262207000,250.9562072753906200,142.1492004394531200,18.3940792083740230,29.8223991394042970,55,106,97,81,64,10059,2146955209,2147519040,2147269997,2147448109,2147085211,2147025764,2147780708,2147135186,1155,-1,8,53712
1370624185,5806,189.4600067138672000,18.4169998168945300,36.5558013916015600,251.2364959716797000,141.6074981689453000,18.4104499816894530,29.8028106689453120,55,106,96,81,63,10060,2146956489,2147517659,2147268013,2147449590,2147085248,2147034971,2147795172,2147135350,810,-1,8,60337
1370624240,5803,185.8200073242187500,18.4279994964599600,36.5558013916015600,251.3999938964843800,141.1764068603515600,18.4234790802001950,29.7899208068847660,56,103,95,81,63,10062,2146960320,2147517138,2147270994,2147447771,2147082038,2147047954,2147826651,2147137289,450,-1,8,28742
1370624295,5807,182.2200012207031200,18.4384994506835940,36.5574989318847660,251.3769989013672000,140.8011932373047000,18.4348201751709000,29.7861900329589840,58,104,97,81,63,10061,2146960950,2147517366,2147274532,2147448841,2147093211,2147076745,2147874048,2147139803,265,-1,8,60891
1370624361,5804,177.9700012207031200,18.4552993774414060,36.5578002929687500,251.3827972412109400,140.3065948486328000,18.4497795104980470,29.7794303894042970,59,105,96,80,62,10059,2146960109,2147519862,2147276196,2147449206,2147087872,2147084864,2147900278,2147139254,716,-1,8,27657
1370624427,5805,173.9199981689453000,18.4622993469238280,36.5584983825683600,251.6475982666015600,140.0628967285156200,18.4571399688720700,29.7644004821777340,58,104,96,82,63,10058,2146959954,2147518592,2147273490,2147448969,2147085632,2147090806,2147901778,2147138313,655,-1,8,19072
1370624506,5807,169.6600036621093800,18.4673004150390620,36.5586013793945300,251.8580017089843800,139.8542938232422000,18.4634494781494140,29.7523708343505860,60,105,96,82,63,10058,2146960237,2147521828,2147277961,2147451648,2147102966,2147143917,2148004516,2147145042,363,-1,8,16263
1370624605,5803,165.8600006103515600,18.4892997741699220,36.5601005554199200,251.7743988037109400,139.1652069091797000,18.4842796325683600,29.7470092773437500,63,105,96,81,60,10057,2146955364,2147519030,2147283730,2147449865,2147097846,2147175844,2148070582,2147149065,3427,-1,8,48327
1370624715,5806,162.1300048828125000,18.5009002685546880,36.5603981018066400,251.3408966064453000,138.7527008056640600,18.4967498779296880,29.7609806060791000,63,108,96,82,63,10054,2146954212,2147517641,2147272941,2147450998,2147089380,2147100617,2147905627,2147140662,2813,-2,8,59414
1370624825,5806,157.7500000000000000,18.5326004028320300,36.5625000000000000,250.7144012451172000,137.7682037353515600,18.5265197753906250,29.7758598327636720,68,111,96,82,63,10056,2146957558,2147522724,2147280210,2147449014,2147105709,2147185462,2148056274,2147150125,2412,-1,8,20642
1370624913,5808,153.5200042724609400,18.5587005615234380,36.5634002685546900,249.7227935791015600,136.8013000488281200,18.5557594299316400,29.8074607849121100,69,106,95,82,63,10048,2146955401,2147519954,2147272822,2147447936,2147104740,2147115584,2147938230,2147144832,1880,-1,8,6043
1370625001,5808,149.3899993896484400,18.5771007537841800,36.5616989135742200,249.9429931640625000,136.1782989501953000,18.5746002197265620,29.7891502380371100,71,104,97,83,64,10053,2146955136,2147521508,2147276388,2147447451,2147098258,2147172480,2148035638,2147150116,1848,-1,8,33792
1370625092,5803,145.2200012207031200,18.5956993103027340,36.5620994567871100,250.8934020996093800,135.6929016113281200,18.5892791748046880,29.7408599853515620,74,106,95,81,63,10050,2146958939,2147520320,2147274907,2147450806,2147110217,2147139501,2147971648,2147145270,1518,-2,8,34808
1370625169,5806,141.7100067138672000,18.6107997894287100,36.5638999938964840,251.0648040771484400,135.1497039794922000,18.6057090759277340,29.7260799407959000,75,107,95,82,64,10048,2146961042,2147516836,2147276050,2147447213,2147116653,2147166793,2148010240,2147148672,931,-1,8,56707
1370625257,5807,137.6699981689453000,18.6450996398925780,36.5646018981933600,250.4421997070312500,134.0872039794922000,18.6378402709960940,29.7397098541259770,78,110,97,83,63,10044,2146961353,2147520347,2147279789,2147449243,2147117650,2147216146,2148091684,2147152274,652,-1,8,13724
1370625345,5805,133.5200042724609400,18.6557998657226560,36.5648002624511700,250.5928955078125000,133.5628051757812500,18.6536998748779300,29.7263107299804700,79,109,96,82,64,10040,2146959524,2147522678,2147276763,2147449298,2147115849,2147178587,2148022610,2147152301,704,-1,8,34483
1370625424,5805,129.7299957275390600,18.6776008605957030,36.5648002624511700,248.7774963378906200,132.9443054199218800,18.6724090576171880,29.7990093231201170,92,114,98,83,63,10033,2146960411,2147521508,2147280603,2147446244,2147132022,2147223378,2148095360,2147158528,975,-1,8,30492
1370625512,5804,125.3899993896484400,18.6868991851806640,36.5654983520507800,249.7655029296875000,132.5836029052734400,18.6833190917968750,29.7502193450927730,97,112,97,84,64,10025,2146959515,2147529170,2147289133,2147446720,2147175140,2147402322,2148395986,2147178011,1208,-1,9,16259
1370625589,5807,121.4300003051757800,18.7276000976562500,36.5662002563476560,250.9875030517578000,131.3578948974609400,18.7203998565673830,29.6800403594970700,109,115,97,83,62,10022,2146959305,2147533732,2147297636,2147445641,2147192054,2147489325,2148537517,2147182774,1188,-1,8,43321
1370625666,5803,117.4899978637695300,18.7735996246337900,36.5654983520507800,253.2910003662109400,129.7998046875000000,18.7675304412841800,29.5582904815673830,125,118,99,83,64,10005,2146961462,2147547318,2147338368,2147448740,2147378413,2148223177,2149778706,2147273737,1257,-1,8,58704
1370625745,5806,113.7399978637695300,18.8166999816894530,36.5677986145019500,254.5881958007812500,128.4122009277343800,18.8095207214355470,29.4836807250976560,133,120,98,83,63,9993,2146959232,2147532123,2147293997,2147447716,2147200530,2147429019,2148397942,2147182400,994,-1,8,35068
1370625833,5805,109.7200012207031200,18.8670005798339840,36.5694007873535160,255.3278045654297000,126.7301025390625000,18.8604202270507800,29.4299602508544920,146,125,100,83,63,9980,2146959680,2147529536,2147292169,2147448137,2147213366,2147451776,2148402633,2147184201,1074,-1,8,31986
1370625932,5805,105.6100006103515600,18.9008998870849600,36.5675010681152340,258.7365112304687500,125.5584030151367200,18.8958797454834000,29.2681808471679700,161,127,100,87,64,9941,2146963629,2147543003,2147320521,2147447762,2147342784,2147836955,2148988059,2147229312,340,-1,8,13185
1370626023,5803,101.8600006103515600,18.9346008300781250,36.5666999816894500,263.3402099609375000,124.4681015014648400,18.9288806915283200,29.0599594116210940,162,130,102,84,65,9968,2146965558,2147555474,2147344155,2147451501,2147500306,2148279168,2149624384,2147287579,3245,-1,8,63145
1370626100,5802,98.7399978637695300,18.9592990875244140,36.5672988891601560,266.3497924804687500,123.6554031372070300,18.9534893035888670,28.9248104095459000,168,134,101,85,66,9955,2146976192,2147584091,2147393252,2147456402,2147823744,2149144950,2150893339,2147399908,2808,-1,8,20349
1370626155,5809,96.3399963378906200,18.9790000915527340,36.5672988891601560,268.3449096679687500,122.8777008056640600,18.9770298004150400,28.8333396911621100,167,134,102,86,65,9959,2146980608,2147610587,2147432566,2147455350,2148083520,2149819145,2151837997,2147491318,2733,-2,8,44633
1370626210,5800,93.9599990844726600,19.0340995788574220,36.5671997070312500,271.0292053222656000,121.3089981079101600,19.0245208740234380,28.7043399810791000,165,133,102,85,65,9955,2146981814,2147614354,2147437458,2147454372,2148137508,2149869750,2151825353,2147495177,2080,-2,9,31118
1370626265,5806,91.6999969482421900,19.0349006652832030,36.5666999816894500,272.7861938476562500,121.1498031616211000,19.0293407440185550,28.6318092346191400,163,135,103,86,65,9952,2146993243,2147633563,2147469906,2147458605,2148411995,2150481801,2152571675,2147575305,1958,-1,8,54056
1370626320,5805,89.5899963378906200,19.0461006164550780,36.5667991638183600,274.5390930175781000,120.7444992065429700,19.0416107177734380,28.5568695068359380,159,133,101,86,66,9952,2146991680,2147622226,2147442752,2147453385,2148317485,2150117184,2151942098,2147519003,2126,-2,8,47
1370626377,5803,87.7200012207031200,19.0995006561279300,36.5615997314453100,276.2518920898437500,119.0580978393554700,19.0926799774169920,28.4676799774169920,141,125,100,84,64,9967,2146985206,2147619529,2147428059,2147454464,2148287104,2149927680,2151542473,2147489051,2045,-1,8,13347
1370626432,5805,86.5400009155273400,19.1322994232177730,36.5615997314453100,278.8039855957031000,118.0242996215820300,19.1239891052246100,28.3547306060791000,120,119,100,84,65,9972,2146985801,2147615305,2147419986,2147455323,2148260443,2149816329,2151311780,2147469430,1559,-2,9,35129
1370626498,5802,85.5599975585937500,19.2257003784179700,36.5615997314453100,281.1948852539062500,115.1836013793945300,19.2100391387939450,28.2262802124023440,118,121,101,83,65,9959,2146986349,2147613970,2147418624,2147455643,2148330578,2149886208,2151315675,2147472704,1543,-2,9,22322
1370626663,5803,83.5999984741211000,19.3526000976562500,36.5646018981933600,284.0895080566406000,111.4822006225586000,19.3222007751464840,28.0690498352050780,133,129,100,86,64,9964,2146995602,2147633508,2147437257,2147457380,2148590226,2150338834,2151715867,2147512265,1174,-1,9,23931
1370626763,5806,80.7500000000000000,19.4747009277343750,36.5647010803222660,285.5599060058594000,106.3634033203125000,19.4773597717285160,27.9491500854492200,109,132,100,86,62,9957,2147005668,2147656722,2147461668,2147458697,2148995401,2150975524,2152266486,2147579949,1394,-2,8,49438
1370626818,5804,78.4599990844726600,19.5559997558593750,36.5681991577148440,286.3469848632812500,104.1802978515625000,19.5435695648193360,27.8922996520996100,109,136,103,88,63,9961,2147016000,2147681929,2147491200,2147459913,2149387392,2151612653,2152857389,2147645604,1103,-1,8,29599
1370626873,5807,76.4300003051757800,19.5876007080078120,36.5648002624511700,288.5732116699219000,102.9673995971679700,19.5803508758544920,27.7937602996826170,105,127,101,87,62,9959,2147027904,2147703844,2147512603,2147460004,2149783213,2152229202,2153417472,2147703634,749,-1,8,46744
1370626928,5803,74.5599975585937500,19.6511993408203120,36.5605010986328100,292.0497131347656000,100.6556015014648400,19.6504898071289060,27.6365394592285160,101,130,102,88,64,9948,2147035437,2147726848,2147537380,2147461723,2150146660,2152772269,2153880868,2147757193,303,-1,8,23304
1370626983,5804,72.8499984741211000,19.8383007049560550,36.5704994201660160,294.3721008300781000,95.0500564575195300,19.8206100463867200,27.4823093414306640,100,129,103,87,64,9951,2147048054,2147749056,2147555136,2147463506,2150531410,2153336027,2154365650,2147811282,106,-1,8,63857
1370627062,5805,70.2099990844726600,19.9790992736816400,36.5662002563476560,292.8497009277344000,90.2606430053711000,19.9660396575927730,27.4785003662109380,97,133,103,88,62,9939,2147066541,2147782308,2147588708,2147465289,2151188068,2154227062,2155088576,2147892717,249,-1,8,46327
1370627117,5805,67.8399963378906200,20.0401992797851560,36.5690994262695300,290.8161926269531000,87.6203765869140600,20.0462493896484380,27.5202407836914060,95,130,103,88,61,9937,2147082093,2147812617,2147619273,2147466496,2151749074,2154967542,2155659053,2147959277,3287,-1,8,38370
1370627172,5805,65.4700012207031200,20.2155990600585940,36.5802001953125000,289.1749877929687500,82.4367828369140600,20.2038002014160160,27.5167503356933600,92,148,105,88,61,9920,2147097590,2147838162,2147639634,2147470217,2152354029,2155731501,2156222162,2148027419,3102,-1,9,26150
1370627227,5809,63.4900016784668000,20.2681999206542970,36.5744018554687500,292.0621948242187500,80.7230834960937500,20.2559108734130860,27.3894290924072270,94,134,103,89,62,9916,2147119881,2147884224,2147682898,2147472594,2153170605,2156820854,2157114002,2148129353,73,-1,9,10256
1370627282,5805,61.6599998474121100,20.3927993774414060,36.5666999816894500,293.1401977539062500,75.9263610839843800,20.4018096923828120,27.2913398742675780,92,136,105,90,62,9910,2147151862,2147947428,2147747748,2147478738,2154399113,2158485092,2158518902,2148290898,397,-1,9,21029
1370627337,5805,60.0999984741210940,20.5842990875244140,36.5629997253418000,291.9419860839844000,70.8653869628906200,20.5558490753173830,27.2728691101074220,88,139,106,91,60,9902,2147169142,2147981970,2147777307,2147480557,2155098093,2159306779,2159111003,2148363602,599,-2,8,16252
1370627415,5805,57.7500000000000000,20.6725006103515620,36.5605010986328100,291.1948852539062500,67.4625625610351600,20.6594791412353500,27.2583808898925780,85,139,104,90,62,9898,2147209956,2148044617,2147828461,2147485193,2156407625,2160848630,2160192246,2148495716,980,-1,8,22543
1370627470,5805,55.3300018310546900,20.8729991912841800,36.5499000549316400,289.5328063964844000,61.0480308532714840,20.8549594879150400,27.2406005859375000,83,140,106,90,61,9901,2147252882,2148113636,2147888274,2147491364,2157820608,2162516608,2161424457,2148651894,501,-1,8,33087
1370627612,5807,50.4599990844726560,20.9269008636474600,36.5509986877441400,296.6373901367187500,58.4683799743652340,20.9336204528808600,26.9520206451416000,77,141,107,91,61,9873,2147312310,2148196964,2147948726,2147497234,2159864128,2164526756,2162594651,2148849481,3296,-2,9,41816
1370627646,5802,49.1199989318847660,20.9906997680664060,36.5503997802734400,294.7309875488281000,57.0184402465820300,20.9778499603271500,27.0025596618652340,75,141,107,90,62,9873,2147340598,2148247744,2147985453,2147499904,2161038317,2165874221,2163611904,2148998244,2984,-1,8,19215
1370627691,5805,47.4599990844726560,21.0044994354248050,36.5499000549316400,293.4190979003906000,55.7598800659179700,21.0162391662597660,27.0346107482910160,74,142,106,90,60,9873,2147373430,2148296576,2148028937,2147506459,2162275675,2167246701,2164576201,2149139337,2731,-2,9,6669
1370627748,5804,45.4399986267089840,21.1005001068115230,36.5508003234863300,292.9778137207031000,52.6835594177246100,21.1101207733154300,27.0131607055664060,72,139,106,91,60,9869,2147463670,2148449325,2148164955,2147520512,2165736694,2171360173,2167704530,2149569024,2843,-2,8,21118
1370627793,5806,43.4900016784668000,21.2675991058349600,36.5452003479003900,297.0297851562500000,47.4508781433105500,21.2698993682861330,26.8043308258056640,69,142,105,90,61,9872,2147566793,2148624594,2148315675,2147541065,2169542756,2175806244,2171051858,2150050358,3102,-2,8,15767
1370627838,5808,41.7500000000000000,21.3736991882324220,36.5373001098632800,296.2933044433594000,44.3520393371582000,21.3645896911621100,26.7930603027343750,69,137,107,91,58,9858,2147674560,2148802139,2148474587,2147561334,2173696054,2180646409,2174648557,2150559314,2652,-2,9,24064
1370627895,5803,39.8199996948242200,21.4349994659423830,36.5274009704589840,296.5870056152344000,42.2581214904785160,21.4285907745361330,26.7571907043457030,68,145,107,89,61,9871,2147662025,2148756187,2148409380,2147557778,2173026724,2179274614,2173127588,2150391131,2144,-1,9,41165
1370627964,5809,37.5200004577636700,21.5251998901367200,36.5125999450683600,297.9726867675781000,38.9874687194824200,21.5286006927490230,26.6685905456542970,69,141,106,90,58,9867,2147810121,2148992694,2148597805,2147581869,2179188763,2186178157,2178139099,2151184585,1835,0,8,21766
1370628021,5808,35.8499984741210940,21.5865001678466800,36.5065002441406250,304.5538024902344000,37.2510490417480500,21.5817203521728500,26.4183006286621100,67,140,107,90,59,9854,2147871734,2149073974,2148664109,2147596406,2181575908,2188574619,2179695542,2151482066,1820,-1,8,2873